Weather History for KOWP - March, 2014

Change the Weather History Date:

Friday, March 28, 2014

  Actual Average (KTUL) Record (KTUL)
Temperature  
Mean Temperature 49 °F 55 °F  
Max Temperature 57 °F 66 °F 90 °F (1963)
Min Temperature 41 °F 44 °F 17 °F (1931)
Degree Days  
Heating Degree Days 16 11  
Month to date heating degree days 407  
Since 1 July heating degree days 3318  
Cooling Degree Days 0 1  
Month to date cooling degree days 7  
Year to date cooling degree days 8  
Moisture  
Dew Point 36 °F    
Average Humidity 59    
Maximum Humidity 72    
Minimum Humidity 47    
Precipitation  
Precipitation 0.00 in 0.12 in 3.05 in (2004)
Month to date precipitation 2.94  
Year to date precipitation 6.45  
Sea Level Pressure  
Sea Level Pressure 29.97 in    
Wind  
Wind Speed 9 mph (NNE)    
Max Wind Speed 16 mph    
Max Gust Speed 22 mph    
Visibility 10 miles    
Events Rain , Thunderstorm    
T = Trace of Precipitation, MM = Missing Value Source: NWS Daily Summary

Daily Weather History Graph

Daily Weather History Graph

Search for Another Location

Airport or City:

Trip Planner

Search our weather history database for the weather conditions in past years. The results will help you decide how hot, cold, wet, or windy it might be!

Date:

Astronomy

Mar. 28, 2014 Rise Set
Actual Time 7:16 AM CDT 7:43 PM CDT
Civil Twilight 6:50 AM CDT 8:09 PM CDT
Nautical Twilight 6:20 AM CDT 8:39 PM CDT
Astronomical Twilight 5:49 AM CDT 9:10 PM CDT
Moon 5:44 AM CDT 5:44 PM CDT
Length of Visible Light 13h 18m
Length of Day
12h 26m
Waning Crescent, 6% of the Moon is Illuminated
Mar 28
Waning Crescent
Mar 30
New
Apr 7
First Quarter
Apr 15
Full
Apr 22
Last Quarter

Hourly Weather History & Observations

Time (CDT) Temp. Windchill Dew Point Humidity Pressure Visibility Wind Dir Wind Speed Gust Speed Precip Events Conditions
12:15 AM 55.8 °F - 36.9 °F 49% 29.83 in 10.0 mi NNE 8.1 mph - N/A   Clear
12:35 AM 54.5 °F - 36.5 °F 51% 29.84 in 10.0 mi NE 6.9 mph - N/A   Clear
12:55 AM 54.1 °F - 36.0 °F 50% 29.84 in 10.0 mi North 6.9 mph - N/A   Clear
1:15 AM 53.2 °F - 36.0 °F 52% 29.86 in 10.0 mi North 3.5 mph - N/A   Clear
1:35 AM 52.3 °F - 35.8 °F 53% 29.87 in 10.0 mi NE 8.1 mph - N/A   Clear
1:55 AM 51.8 °F - 35.6 °F 54% 29.88 in 10.0 mi NE 6.9 mph - N/A   Clear
2:15 AM 50.7 °F - 35.8 °F 57% 29.88 in 10.0 mi NE 10.4 mph - N/A   Clear
2:35 AM 49.6 °F - 35.4 °F 58% 29.89 in 10.0 mi NE 9.2 mph - N/A   Clear
2:55 AM 48.4 °F - 34.9 °F 60% 29.89 in 10.0 mi ENE 8.1 mph - N/A   Clear
3:15 AM 47.1 °F - 34.9 °F 62% 29.89 in 10.0 mi NNE 6.9 mph - N/A   Clear
3:35 AM 46.6 °F - 34.9 °F 64% 29.89 in 10.0 mi NNE 8.1 mph - N/A   Clear
3:55 AM 45.9 °F 42.3 °F 34.7 °F 65% 29.90 in 10.0 mi NNE 6.9 mph - N/A   Clear
4:15 AM 45.1 °F 40.3 °F 34.3 °F 66% 29.89 in 10.0 mi NNE 9.2 mph - N/A   Clear
4:35 AM 44.6 °F 40.7 °F 34.3 °F 67% 29.89 in 10.0 mi NNE 6.9 mph - N/A   Clear
4:55 AM 44.4 °F 40.0 °F 34.0 °F 67% 29.87 in 10.0 mi NE 8.1 mph - N/A   Clear
5:15 AM 44.1 °F 37.1 °F 33.8 °F 67% 29.86 in 10.0 mi NNE 15.0 mph - N/A   Clear
5:35 AM 43.5 °F 38.3 °F 33.8 °F 69% 29.89 in 10.0 mi NNE 9.2 mph - N/A   Clear
5:55 AM 43.2 °F 37.4 °F 33.4 °F 69% 29.89 in 10.0 mi NNE 10.4 mph 16.1 mph N/A   Clear
6:15 AM 42.8 °F 37.5 °F 33.4 °F 70% 29.90 in 10.0 mi NE 9.2 mph - N/A   Clear
6:35 AM 42.6 °F 39.0 °F 33.3 °F 69% 29.92 in 10.0 mi NNE 5.8 mph - N/A   Clear
6:55 AM 42.3 °F 39.4 °F 33.3 °F 70% 29.93 in 10.0 mi NE 4.6 mph - N/A   Clear
7:15 AM 41.9 °F 35.4 °F 33.3 °F 71% 29.92 in 10.0 mi NNE 11.5 mph - N/A   Clear
7:35 AM 41.9 °F 35.9 °F 33.3 °F 71% 29.93 in 10.0 mi North 10.4 mph - N/A   Clear
7:55 AM 42.1 °F 35.7 °F 33.1 °F 70% 29.94 in 10.0 mi NNE 11.5 mph 20.7 mph N/A   Clear
8:15 AM 42.8 °F 36.2 °F 33.1 °F 69% 29.94 in 10.0 mi NNE 12.7 mph - N/A   Clear
8:35 AM 44.2 °F 38.4 °F 33.3 °F 65% 29.94 in 10.0 mi NNE 11.5 mph 17.3 mph N/A   Clear
8:55 AM 45.7 °F 40.6 °F 33.6 °F 63% 29.97 in 10.0 mi NNE 10.4 mph - N/A   Clear
9:15 AM 45.7 °F 39.5 °F 33.3 °F 62% 29.97 in 10.0 mi NNE 13.8 mph - N/A   Scattered Clouds
9:35 AM 46.8 °F - 33.3 °F 59% 29.99 in 10.0 mi North 8.1 mph - N/A   Scattered Clouds
9:55 AM 47.1 °F - 32.9 °F 58% 29.98 in 10.0 mi North 9.2 mph - N/A   Clear
10:15 AM 47.3 °F - 32.9 °F 57% 29.99 in 10.0 mi NNE 10.4 mph - N/A   Clear
10:35 AM 48.4 °F - 33.3 °F 56% 29.99 in 10.0 mi NNE 8.1 mph - N/A   Clear
10:55 AM 49.5 °F - 33.6 °F 54% 29.98 in 10.0 mi NE 13.8 mph 17.3 mph N/A   Clear
11:15 AM 50.4 °F - 33.8 °F 53% 29.99 in 10.0 mi NE 13.8 mph - N/A   Clear
11:35 AM 50.5 °F - 34.0 °F 53% 29.99 in 10.0 mi North 10.4 mph 19.6 mph N/A   Clear
11:55 AM 52.5 °F - 34.9 °F 51% 29.97 in 10.0 mi NNE 16.1 mph 21.9 mph N/A   Clear
12:15 PM 53.2 °F - 34.7 °F 49% 29.97 in 10.0 mi NNE 15.0 mph - N/A   Clear
12:35 PM 53.6 °F - 34.7 °F 49% 29.99 in 10.0 mi NNE 12.7 mph 19.6 mph N/A   Clear
12:55 PM 53.6 °F - 34.7 °F 49% 29.99 in 10.0 mi NNE 13.8 mph 18.4 mph N/A   Scattered Clouds
1:15 PM 54.7 °F - 35.1 °F 48% 29.99 in 10.0 mi NNE 15.0 mph 18.4 mph N/A   Scattered Clouds
1:35 PM 53.6 °F - 34.5 °F 48% 29.99 in 10.0 mi NNE 13.8 mph 18.4 mph N/A   Mostly Cloudy
1:55 PM 54.7 °F - 34.9 °F 47% 29.97 in 10.0 mi NNE 15.0 mph 18.4 mph N/A   Mostly Cloudy
2:15 PM 54.1 °F - 34.5 °F 48% 29.95 in 10.0 mi NNE 16.1 mph - N/A   Mostly Cloudy
2:35 PM 54.1 °F - 35.4 °F 49% 29.95 in 10.0 mi NNE 13.8 mph - N/A Thunderstorm Thunderstorm
2:55 PM 53.2 °F - 35.6 °F 51% 29.96 in 10.0 mi NNE 8.1 mph - N/A Thunderstorm Unknown
3:15 PM 52.7 °F - 38.7 °F 59% 29.97 in 10.0 mi NNE 10.4 mph - N/A Rain Rain
3:35 PM 52.7 °F - 39.2 °F 60% 29.94 in 10.0 mi NNE 12.7 mph 20.7 mph N/A Rain Light Rain
3:55 PM 53.6 °F - 37.8 °F 55% 29.97 in 10.0 mi NNW 8.1 mph - N/A Rain Light Rain
4:15 PM 52.9 °F - 39.9 °F 61% 29.96 in 7.0 mi NE 10.4 mph - N/A Rain , Thunderstorm Light Thunderstorms and Rain
4:35 PM 53.1 °F - 41.0 °F 64% 29.94 in 10.0 mi NE 9.2 mph - N/A   Mostly Cloudy
4:55 PM 53.1 °F - 40.1 °F 61% 29.94 in 10.0 mi NNE 9.2 mph - N/A   Scattered Clouds
5:15 PM 55.4 °F - 41.9 °F 60% 29.96 in 10.0 mi NNE 5.8 mph - N/A   Scattered Clouds
5:35 PM 57.2 °F - 40.1 °F 53% 29.98 in 10.0 mi NNE 6.9 mph - N/A   Scattered Clouds
5:55 PM 57.6 °F - 38.5 °F 49% 29.98 in 10.0 mi North 8.1 mph 16.1 mph N/A   Clear
6:15 PM 56.7 °F - 37.4 °F 49% 29.99 in 10.0 mi North 15.0 mph 19.6 mph N/A   Clear
6:35 PM 55.4 °F - 37.2 °F 50% 30.00 in 10.0 mi NNE 10.4 mph 16.1 mph N/A   Clear
6:55 PM 55.6 °F - 37.0 °F 50% 30.02 in 10.0 mi NNE 10.4 mph 17.3 mph N/A   Clear
7:15 PM 55.4 °F - 36.5 °F 49% 30.03 in 10.0 mi North 6.9 mph - N/A   Scattered Clouds
7:35 PM 54.9 °F - 36.5 °F 50% 30.04 in 10.0 mi North 8.1 mph - N/A   Clear
7:55 PM 53.8 °F - 36.5 °F 52% 30.05 in 10.0 mi North 6.9 mph - N/A   Clear
8:15 PM 53.1 °F - 36.5 °F 53% 30.05 in 10.0 mi North 4.6 mph - N/A   Clear
8:35 PM 51.8 °F - 36.5 °F 56% 30.06 in 10.0 mi North 6.9 mph - N/A   Clear
8:55 PM 50.9 °F - 36.5 °F 58% 30.06 in 10.0 mi North 4.6 mph - N/A   Clear
9:15 PM 49.1 °F - 36.7 °F 62% 30.06 in 10.0 mi NNE 3.5 mph - N/A   Clear
9:35 PM 49.1 °F - 36.7 °F 62% 30.07 in 10.0 mi Calm Calm - N/A   Clear
9:55 PM 48.2 °F - 36.5 °F 64% 30.09 in 10.0 mi Calm Calm - N/A   Clear
10:15 PM 48.6 °F - 36.9 °F 64% 30.11 in 10.0 mi North 4.6 mph - N/A   Clear
10:35 PM 48.2 °F - 36.7 °F 64% 30.11 in 10.0 mi North 5.8 mph - N/A   Clear
10:55 PM 46.2 °F - 36.3 °F 68% 30.12 in 10.0 mi Calm Calm - N/A   Clear
11:15 PM 45.9 °F 43.6 °F 36.7 °F 70% 30.12 in 10.0 mi NNE 4.6 mph - N/A   Clear
11:35 PM 45.1 °F 43.7 °F 36.7 °F 72% 30.12 in 7.0 mi North 3.5 mph - N/A   Clear
11:55 PM 46.0 °F 44.8 °F 36.5 °F 69% 30.13 in 10.0 mi North 3.5 mph - N/A   Clear